DECAYED

CZ-6A DEB, 60833 (Decayed)

Orbit data source: Space-Track

CZ-6A DEB, 60833 was space debris in LEO originally from a launch on Tue, 06 Aug 2024 UTC launched from the Taiyaun Space Center, China (TSC). Debris objects in space refer to the collection of defunct objects orbiting the Earth. Examples of debris include non-operational satellites, rocket bodies, and fragments generated from explosions, collisions, or faulty payload assembly.

Not visible in the next 10 days
Identifier
60833, 2024-140HL
Orbit
Decayed
Country
Flag of CNCN / PRC
Related business
Manufacturer
SAST
Mission
Decayed spacecraft
Bus & Motor
Unknown
Mass
Unknown
Launch date (UTC)
2024-08-06 (2 years ago)
Launch vehicle
Unknown
Launch site
Taiyaun Space Center, China (TSC)
Object type
Payload
Rocket body
Debris
Shape & HBR
Unknown shape, 0.1 m
Radar Cross Section
Medium (>0.1 m² and <1 m²)

Expand to show TLE details & history
Last TLE update: 10 months ago

TLE from 10 months ago
0 CZ-6A DEB
1 60833U 24140HL  25220.74951965  .13182458 -10717-5  53940-2 0  9995
2 60833  88.9929 305.4249 0016574 278.5036  81.4386 16.23027843 53305
Epoch: 2025-08-08T17:59Z
TLE epoch observation values (Epoch: 2025-08-08T17:59:18.497Z)
Latitude
-0.0001°
Longitude
78.10272°
Altitude
213.073 km
Speed
7.779 km/s
True Right ascension
20h 21m 41s
True Declination
0° 00' 00"
Sunlit
Object was in full shadow at epoch
Visualization orbit readout
Latitude
Unknown
Longitude
Unknown
Altitude
Unknown
Speed
Unknown
Apparent Right ascension
Unknown
Apparent Declination
Unknown
Sunlit
N/A
Visualization observer readout
Local Sidereal Time
08:33:49
Azimuth
Unknown
Elevation
Unknown
Doppler factor
Unknown
Orbital elements
Apogee altitude
218.926 km
Perigee altitude
197.094 km
Semi-major axis
6,586.147 km
Eccentricity
0.00166
Inclination
88.9929°
RAAN
305.4249°
Arg. of periapsis
278.5036°
True anomaly
81.62647°
Mean anomaly
81.4386°
Eccentric anomaly
81.53253°
Mean motion
4.06065 °/min
Orbital period
88.66 mins
BSTAR
0.005394
Loading maneuver chart data...
Computing Atmospheric mass density...
Loading historical data...
Loading historical data...
Loading historical data...
Loading historical data...
Loading historical data...
Loading historical data...
Loading historical data...

Documentation

Showing up to 5 results
|